Regional Weather Roundup
Issued by NWS

Home | Current Version | Previous Version | Text Only | Print | Product List | Glossary Off
Versions: 1 2 3 4 5 6 7 8 9 10 11 12 13 14 15 16 17 18 19 20 21 22 23 24 25 26 27 28 29 30 31 32 33 34 35 36 37 38 39 40 41 42 43 44 45 46 47 48 49 50

000
ASUS43 KTOP 290259
RWRKS

WEATHER ROUNDUP FOR KANSAS
NATIONAL WEATHER SERVICE GOODLAND KS
900 PM CST SUN DEC 28 2014

NOTE:  "FAIR" INDICATES FEW OR NO CLOUDS BELOW 12,000 FEET WITH NO
SIGNIFICANT WEATHER AND/OR OBSTRUCTIONS TO VISIBILITY.

KSZ001>006-013>018-027>032-041>047-290400-
NORTHWEST KANSAS

CITY           SKY/WX    TMP DP  RH WIND       PRES   REMARKS
GOODLAND       PTCLDY    15  12  88 CALM      29.98S
HAYS           PTCLDY    27  16  63 SE8       30.05S
HILL CITY      CLEAR     24  20  84 NE5       30.06R
RUSSELL        MOCLDY    31  22  69 SE13      30.05S WCI  21
$$

KSZ061>065-074>080-084>089-290400-
SOUTHWEST KANSAS

CITY           SKY/WX    TMP DP  RH WIND       PRES   REMARKS
DODGE CITY     CLEAR     24  17  74 E9        30.00R
ELKHART          N/A     26  15  63 S10         N/A  WCI  16
GARDEN CITY    CLEAR     21  15  78 E9        29.97R
GREAT BEND     PTCLDY    27  16  63 SE8       30.07S
LIBERAL        CLEAR     28  12  50 SE12      29.95F WCI  18
$$

KSZ066>073-081>083-090>101-290400-
SOUTHEAST KANSAS

CITY           SKY/WX    TMP DP  RH WIND       PRES   REMARKS
CHANUTE        CLEAR     28  20  71 SE6       30.16S
COFFEYVILLE    CLEAR     28  22  78 E5        30.16F
HUTCHINSON     CLEAR     25  17  72 E6        30.10S
MEDICINE LODGE   N/A     28  19  69 E7        30.07R
NEWTON         CLEAR     28  16  59 S6        30.12F
PARSONS        CLEAR     26  22  84 CALM      30.17S
WICHITA INTL   CLEAR     30  18  60 E5        30.11R
WICHITA JABRA  CLEAR     26  17  68 E3        30.12R
WINFIELD       CLEAR     30  19  63 E5        30.13R
$$

KSZ007>012-019>026-033>040-048>060-102>105-290400-
NORTHEAST KANSAS

CITY           SKY/WX    TMP DP  RH WIND       PRES   REMARKS
CONCORDIA      CLOUDY    32  24  72 CALM      30.11S
EMPORIA        PTCLDY    28  18  66 S6        30.14R
LAWRENCE       PTCLDY    25  21  85 E3        30.18R
MANHATTAN      CLOUDY    31  22  69 S3        30.15R
OLATHE IND     PTCLDY    27  19  72 SE3       30.17S
OLATHE EXE     PTCLDY    28  17  63 SE3       30.16S
SALINA         PTCLDY    30  21  69 SE5       30.13R
TOPEKA BILLARD MOCLDY    32  22  66 E3        30.17S
TOPEKA FORBES  MOCLDY    30  20  66 SE3       30.15S
$$



USA.gov is the U.S. government's official web portal to all federal, state and local government web resources and services.